Temp_Advection
nan nan nan nan nan nan nan nan nan nan nan nan nan nan nan nan nan nan nan nan nan nan nan nan nan nan nan nan nan nan nan nan nan nan nan nan nan nan nan nan nan nan nan nan nan nan nan nan nan nan nan nan nan nan nan nan nan nan nan nan nan nan nan nan nan nan nan nan nan
nan 0 0 0 0 0 0 0 0 0 0 0 0 0 0 -0 -0 -0 -0 -0 -0 -0 -0 0 0 0 0 0 0 0 -0 -0 0 0 0 0 0 0 0 0 0 0 0 0 0 0 0 0 0 0 0 0 0 0 1 0 0 0 0 0 0 0 0 0 0 0 0 0 nan
nan 0 0 0 1 1 0 0 0 0 0 0 0 0 0 -0 -0 -0 -0 -0 -0 -0 -0 0 0 0 0 0 0 -0 -0 -0 -0 -0 0 0 0 0 0 0 0 0 0 0 0 0 0 0 0 0 0 0 0 0 0 1 0 0 0 0 0 0 0 0 0 0 0 0 nan
nan 0 0 1 1 1 0 0 0 0 0 0 0 0 -0 -0 -0 -0 -0 -0 -0 -0 -0 0 0 -0 0 0 0 -0 -0 -0 -0 -0 -0 0 0 0 0 0 0 0 0 0 0 0 0 0 0 0 0 0 0 0 0 0 0 0 0 0 0 0 0 0 0 0 0 0 nan
nan 0 1 1 1 1 0 0 0 1 0 0 0 0 -0 -0 -0 -0 -0 -0 0 0 0 0 0 -0 -0 -0 -0 -0 -0 -0 -0 -0 -0 0 0 0 0 0 0 0 0 0 0 0 0 0 0 0 0 0 0 0 0 0 0 0 0 0 0 0 0 -0 0 0 0 0 nan
nan 1 1 1 1 1 0 1 1 1 0 0 0 0 -0 -0 -0 -0 0 0 0 0 0 0 -0 -0 -0 -0 -0 -0 0 0 0 -0 -0 0 0 0 0 0 0 0 0 0 0 0 0 0 0 0 0 0 0 0 0 0 0 -0 0 0 0 0 0 0 -0 0 0 0 nan
nan 1 1 1 1 1 1 1 1 0 0 0 0 0 -0 -0 -0 0 0 0 0 0 -0 -0 -0 -0 -0 -0 0 -0 -0 0 0 0 0 0 0 0 0 0 0 0 0 0 0 0 0 0 0 0 0 0 0 0 0 0 0 -0 -0 -0 0 0 0 0 0 0 0 0 nan
nan 1 1 1 1 1 1 1 0 0 0 0 0 0 -0 0 0 0 0 0 0 -0 -0 -0 -0 -0 -0 -0 -0 0 -0 0 0 0 0 0 0 0 0 0 0 0 0 0 0 0 0 0 0 0 0 -0 0 0 0 0 0 -0 -0 -0 -0 0 0 0 0 0 0 0 nan
nan 1 1 1 1 1 1 0 0 0 0 0 0 -0 0 0 0 0 0 0 0 -0 -0 -0 -0 -0 -0 -0 -0 -0 -0 -0 -0 0 0 0 0 0 0 0 0 0 0 0 0 0 -0 -0 0 0 0 -0 -0 -0 0 0 0 -0 -0 -0 -0 -0 0 0 0 0 0 0 nan
nan 1 1 1 1 1 0 0 0 0 0 0 0 0 0 0 0 0 0 0 0 -0 -0 -0 -0 -0 -0 -0 -0 -0 -0 -0 -0 -0 0 0 0 0 0 0 0 0 0 0 0 0 -0 -0 -0 0 0 0 -0 -0 0 -0 -0 -0 -0 -0 -0 -0 -0 0 0 0 0 0 nan
nan 1 1 1 1 0 0 0 0 0 0 0 0 0 0 0 0 -0 -0 -0 -0 -0 -0 -0 -0 -0 -0 -0 -0 -0 -0 -0 -0 -0 0 0 0 0 0 0 -0 -0 0 0 0 0 -0 -0 -0 -0 0 0 0 -0 -0 0 -0 -0 -0 -0 -0 -0 -0 0 0 0 0 0 nan
nan 1 1 0 0 0 0 0 0 0 0 0 0 0 0 0 -0 -0 -0 -0 -0 -0 -0 -0 -0 -0 -0 -0 -0 -0 -0 -0 -0 -0 -0 0 0 0 0 0 0 0 0 0 -0 -0 -0 -0 -0 -0 -0 0 0 0 0 0 -0 -0 -0 0 0 -0 -0 0 0 1 0 0 nan
nan 1 0 0 0 0 0 0 0 0 0 0 0 0 0 0 -0 -0 -0 -0 -0 -0 -0 -0 -0 -0 -0 -0 -0 -0 -0 -0 0 -0 0 0 0 0 0 0 0 0 0 0 0 -0 -0 -0 -0 -0 -0 -0 0 0 0 0 -0 -0 -0 -0 0 0 0 0 0 1 0 0 nan
nan 0 0 0 0 0 0 0 0 0 0 0 0 0 0 -0 -0 -0 -0 -0 -0 -0 -0 0 0 -0 -0 -0 -0 -0 -0 -0 -0 0 0 0 0 0 -0 0 0 0 0 0 0 0 0 0 0 -0 -0 -0 -0 0 0 0 0 -0 -0 -0 -0 -0 0 0 0 0 0 0 nan
nan 0 0 0 0 0 0 0 0 0 0 0 0 0 0 -0 -0 -0 -0 -0 -0 -0 -0 -0 0 0 0 -0 -0 -0 -0 -0 -0 -0 -0 0 0 0 0 0 0 0 -0 0 0 0 0 0 0 -0 -0 -0 -0 -0 0 0 0 0 0 -0 -0 -0 0 0 0 1 0 0 nan
nan 0 0 1 1 0 0 0 0 0 0 0 0 0 0 -0 -0 -0 -0 -0 -0 -0 -0 -0 0 0 0 0 0 0 0 0 -0 -0 -0 -0 -0 0 0 -0 0 0 0 0 0 0 0 0 0 0 0 -0 -0 -0 0 0 0 0 0 0 0 0 0 0 0 1 1 0 nan
nan 1 1 1 1 0 0 0 0 0 0 0 0 -0 -0 -0 -0 -0 -0 -0 -0 -0 -0 -0 -0 0 0 0 0 0 0 0 0 -0 -0 -0 -0 -0 -0 -0 -0 -0 -0 -0 -0 0 0 0 0 0 0 0 0 0 -0 0 0 0 0 0 0 1 1 1 1 1 1 1 nan
nan 1 1 1 1 0 0 0 0 0 0 0 0 -0 -0 -0 -0 -0 -0 -0 -0 0 0 0 0 0 0 0 0 0 0 -0 0 0 -0 -0 -0 -0 -0 -0 -0 0 -0 -0 -0 -0 -0 0 0 0 0 0 0 0 0 0 0 0 0 0 1 1 1 1 1 1 1 1 nan
nan 1 1 1 0 0 0 0 0 0 0 0 -0 -0 -0 -0 -0 -0 -0 -0 -0 0 0 0 0 0 0 0 0 0 0 -0 -0 0 0 0 0 -0 -0 -0 -0 0 0 0 0 0 0 -0 -0 0 0 0 0 0 0 0 0 0 0 0 0 1 1 1 1 1 1 1 nan
nan 1 1 0 0 0 0 0 0 0 0 -0 -0 -0 -0 -0 -0 -0 0 0 0 0 0 -0 -0 -0 -0 -0 0 0 0 0 -0 -0 0 0 0 0 0 -0 -0 0 0 0 0 0 0 0 0 0 0 0 0 0 0 0 0 0 0 0 0 1 1 1 1 1 1 1 nan
nan 1 1 0 0 0 0 0 0 0 0 -0 -0 -0 -0 -0 -0 -0 0 0 0 0 0 -0 -0 -0 -0 -0 -0 0 0 0 0 0 0 0 0 0 0 0 -0 0 0 0 0 0 0 0 0 0 0 0 0 0 0 -0 -0 -0 0 0 0 1 1 1 1 1 1 1 nan
nan 1 0 0 0 0 0 0 0 0 -0 -0 -0 -0 -0 -0 -0 -0 -0 0 0 0 0 -0 -0 -0 -0 -0 -0 -0 0 0 0 0 0 0 0 0 0 0 -0 0 0 0 0 0 0 0 0 0 0 0 0 -0 -0 -0 -1 -1 -1 -1 -0 0 1 1 2 1 1 1 nan
nan 0 0 0 0 0 0 0 0 0 -0 -0 -0 -0 -0 -0 -0 -0 -0 -0 -0 -0 -0 -0 -0 -0 -0 -0 -0 -0 -0 0 0 0 0 0 0 0 0 0 0 0 0 0 0 0 -0 -0 -0 0 0 -0 -0 -1 -1 -1 -1 -1 -2 -2 -1 -1 0 1 1 1 1 2 nan
nan 0 0 0 0 0 0 0 0 -0 -0 -0 -0 -0 -0 -0 -0 -0 -0 -0 -0 -0 -0 -0 -0 0 0 0 0 -0 -0 -0 0 0 0 0 0 0 0 0 0 0 0 0 0 0 0 -0 -0 -0 -0 -0 -0 -1 -1 -1 -1 -1 -2 -2 -2 -2 -1 0 1 1 1 2 nan
nan 0 0 0 0 0 0 0 -0 -0 -0 -0 -0 -0 -0 -0 -0 -0 -0 0 0 0 0 0 0 0 0 0 0 0 0 0 -0 -0 -0 0 0 0 0 0 0 0 0 0 0 0 1 1 0 -0 -0 -0 -0 -0 -0 -0 -0 -0 -1 -1 -2 -2 -2 -1 0 1 1 1 nan
nan 0 0 0 0 0 0 -0 -0 -0 -0 -0 -0 -0 -0 -0 -0 -0 -0 0 0 0 0 0 0 0 0 0 0 0 0 0 0 -0 -0 -0 -0 -0 0 0 0 0 0 0 0 0 1 1 1 1 1 0 0 -0 -0 -0 0 0 -0 -0 -1 -1 -1 -1 -1 -0 1 1 nan
nan 0 0 0 0 0 0 -0 -0 -0 -0 -0 -0 -0 0 0 0 0 0 0 0 0 0 0 0 0 0 0 0 0 0 0 0 0 -0 -0 -0 -0 -0 -0 0 0 0 0 0 0 0 1 1 1 1 1 1 0 -0 -0 -0 0 0 0 0 0 -0 -0 -0 -0 0 1 nan
nan 0 0 0 0 0 -0 -0 -0 -0 -0 -0 -0 -0 0 0 0 0 0 0 0 0 0 0 0 0 0 0 0 0 0 0 0 0 0 -0 -0 -0 -0 -0 -0 0 0 0 0 0 0 0 1 1 2 1 1 1 0 0 0 0 0 0 0 0 0 0 0 0 0 0 nan
nan 0 0 0 0 -0 -0 -0 -0 -0 -0 -0 -0 -0 0 0 0 0 0 0 0 0 0 0 0 0 0 0 0 0 0 0 0 0 0 -0 -0 -0 -0 -0 -0 -0 0 0 0 0 0 0 0 1 2 2 1 1 0 0 0 0 0 1 1 1 1 1 0 0 0 -0 nan
nan 0 0 0 -0 -0 -0 -0 -0 -0 -0 -0 0 0 0 0 0 0 0 0 0 0 0 0 0 0 0 0 0 0 0 0 0 0 0 -0 -0 -0 -0 -0 -0 -0 0 0 0 0 0 0 0 1 1 2 1 1 1 1 1 1 1 1 1 1 1 1 1 1 0 -0 nan
nan 0 0 0 -0 -0 -0 0 -0 -0 -0 0 0 0 0 0 0 0 0 0 0 0 0 0 0 0 0 0 0 0 0 0 0 0 0 -0 -0 -0 -0 -0 -0 -0 0 0 0 0 0 0 0 1 1 1 1 1 1 1 1 1 1 1 1 1 1 1 1 0 0 0 nan
nan 0 0 -0 -0 -0 -0 -0 -0 -0 -0 0 0 0 0 0 0 0 0 0 -0 0 0 0 0 0 0 0 0 0 0 0 0 0 0 0 -0 -0 -0 -0 -0 -0 0 0 -0 0 0 0 0 1 1 1 1 1 1 1 1 1 1 1 1 2 2 1 1 0 0 0 nan
nan 0 0 -0 -0 -0 -0 -0 -0 -0 -0 0 0 0 0 0 0 0 0 0 0 -0 0 0 0 -0 -0 -0 -0 0 0 0 0 0 0 0 -0 -0 -0 -0 -0 0 0 0 0 0 0 0 0 1 1 1 1 1 1 1 0 0 1 1 1 2 1 1 0 0 0 0 nan
nan 0 -0 -0 -0 0 0 -0 -0 -0 -0 0 0 0 0 0 0 0 0 0 0 0 0 0 0 -0 -0 -0 -0 -0 -0 -0 0 0 0 0 0 -0 -0 -0 -0 0 0 0 0 0 0 0 0 1 1 1 1 1 0 0 0 0 0 1 1 2 2 1 0 0 0 0 nan
nan 0 -0 -0 -0 -0 -0 -0 -0 -0 0 0 0 0 0 0 0 0 0 0 0 0 0 0 0 0 0 0 -0 -0 -0 -0 -0 0 0 0 0 -0 -0 -0 -0 0 0 0 0 0 0 0 0 1 1 1 1 0 0 0 0 0 0 0 1 1 2 1 0 0 0 -0 nan
nan 0 0 -0 -0 -0 -0 -0 0 -0 0 0 0 0 0 0 0 0 0 0 0 0 0 0 0 0 0 0 0 0 -0 -0 -0 0 0 0 0 -0 -1 -1 -0 0 1 1 0 0 0 0 1 1 1 1 1 0 0 0 -0 -0 -0 0 0 1 1 1 0 0 0 -0 nan
nan 0 -0 -0 -0 -0 -0 -0 0 0 0 0 0 0 0 0 0 0 0 0 0 0 -0 -0 0 0 0 -0 -0 0 0 0 -0 -0 0 0 0 -0 -1 -1 -0 0 1 1 0 0 0 0 1 1 1 0 0 0 0 -0 -0 -0 -0 -0 -0 0 1 1 1 0 0 -0 nan
nan -0 -0 -0 -0 -0 0 0 0 0 0 0 0 0 0 0 0 0 0 0 0 -0 -0 -0 -0 0 0 -0 -0 -0 0 0 0 0 0 0 0 0 -0 -1 -1 -0 0 1 0 0 0 0 1 1 1 0 -0 -0 -0 -0 -0 -0 -1 -1 -1 -0 1 1 1 0 0 -0 nan
nan 0 -0 -0 -0 0 0 0 0 0 0 0 0 0 0 0 0 0 0 0 0 -0 -0 -0 -0 0 0 -0 -0 -0 -0 0 0 0 0 0 0 0 -0 -1 -1 -0 0 1 0 0 0 0 1 1 1 0 -0 -0 -0 -0 -0 0 -0 -1 -1 -1 -0 0 0 0 0 0 nan
nan 0 -0 -0 -0 0 0 0 0 0 0 0 0 0 0 0 0 0 0 0 0 0 -0 -0 -0 0 0 0 -0 -0 -0 0 0 1 0 0 0 0 0 -0 -0 -0 0 1 1 0 0 0 1 1 1 0 -0 -0 -0 -0 0 0 0 -0 -1 -1 -1 -1 -0 -0 0 0 nan
nan nan nan nan nan nan nan nan nan nan nan nan nan nan nan nan nan nan nan nan nan nan nan nan nan nan nan nan nan nan nan nan nan nan nan nan nan nan nan nan nan nan nan nan nan nan nan nan nan nan nan nan nan nan nan nan nan nan nan nan nan nan nan nan nan nan nan nan nan
Wind_Speed
23 23 22 21 20 18 17 16 15 14 13 13 12 12 12 12 12 13 15 16 17 18 19 20 21 22 22 22 22 23 23 24 24 25 25 26 26 27 27 27 27 27 27 27 27 28 28 28 29 29 30 30 30 31 31 31 31 31 32 32 32 32 33 33 33 33 33 33 33
24 24 23 22 20 19 18 17 16 14 14 13 12 12 12 12 13 14 15 16 17 18 19 20 21 21 22 22 23 23 24 24 25 26 26 26 27 27 27 27 27 27 27 27 28 28 28 29 29 30 30 30 31 31 31 31 31 31 32 32 32 32 33 33 33 33 33 33 33
25 24 23 22 21 20 18 17 16 14 14 13 13 12 12 13 13 14 15 16 18 19 20 20 21 21 22 22 23 24 24 25 26 26 27 27 27 27 27 27 27 27 27 27 28 28 28 29 29 30 30 31 31 31 31 31 31 31 32 32 32 32 32 33 33 33 33 33 33
26 25 24 22 21 20 18 17 15 14 14 13 13 13 13 13 14 15 16 17 18 19 19 20 21 21 22 23 23 24 25 26 27 27 27 27 27 27 27 27 27 27 27 28 28 28 29 29 30 30 30 31 31 31 31 31 31 31 31 32 32 32 32 32 32 32 32 32 32
26 25 23 22 21 20 18 16 15 14 13 13 13 13 13 14 15 16 16 17 18 19 20 20 21 22 23 23 24 25 26 26 27 27 27 27 27 27 27 27 27 27 27 28 28 28 29 29 30 30 30 31 31 31 31 31 31 31 31 31 31 31 31 32 32 31 31 31 31
25 24 23 22 20 19 17 16 15 14 13 13 13 13 14 15 15 16 17 17 18 19 20 21 22 22 23 24 25 26 26 27 27 27 27 27 27 27 27 27 27 27 28 28 28 28 29 29 30 30 30 30 31 31 31 31 31 31 31 31 31 31 31 31 31 31 31 31 31
25 23 22 21 19 17 16 15 14 14 14 14 14 14 15 15 16 17 17 18 19 20 20 21 22 23 24 25 26 26 27 27 27 27 27 27 27 27 27 27 27 28 28 28 28 29 29 29 30 30 30 30 30 30 30 30 31 31 31 31 31 30 30 30 30 30 30 31 31
23 22 21 19 18 16 15 15 14 14 14 14 15 15 16 16 17 17 18 18 19 20 21 22 23 24 25 26 26 27 27 27 27 27 27 27 27 28 28 28 28 28 28 28 28 29 29 29 29 30 30 30 30 30 30 30 30 30 31 31 31 30 30 29 30 29 30 30 30
23 21 20 18 17 16 15 15 15 15 15 15 15 16 16 17 17 17 18 19 20 21 22 23 24 25 26 26 26 27 27 27 27 27 27 28 28 28 28 28 28 28 28 28 28 29 29 29 29 29 29 30 30 30 30 30 30 30 30 30 30 30 29 29 29 29 29 29 29
22 20 18 17 16 16 16 15 15 15 15 15 16 16 17 17 17 18 19 20 21 22 23 24 25 25 26 26 26 27 27 27 27 27 28 28 28 28 28 28 28 28 28 28 28 28 29 29 29 29 29 29 29 29 29 29 29 29 30 30 30 30 29 28 28 28 28 28 29
20 19 17 16 16 16 16 16 16 16 16 16 16 16 17 17 18 18 19 20 22 23 24 25 25 25 26 26 26 26 27 27 27 27 28 28 28 28 28 28 28 28 28 28 28 28 28 28 29 29 29 29 29 29 29 29 29 29 29 29 29 29 29 28 28 28 28 28 29
19 18 17 17 17 16 16 16 16 16 15 15 16 16 17 17 18 19 20 21 22 23 24 25 25 25 26 26 26 26 27 27 27 27 28 28 28 28 28 28 28 28 27 27 27 28 28 28 28 28 28 28 28 28 29 29 29 29 29 29 29 29 29 29 28 28 28 28 29
18 18 17 17 17 17 16 16 16 15 15 15 15 16 17 18 19 20 21 22 23 24 24 25 25 25 25 26 26 26 26 27 27 27 27 27 27 27 27 27 27 27 27 27 27 27 27 27 28 28 28 29 28 28 28 29 29 29 29 29 29 29 29 29 28 28 28 29 29
19 18 18 18 17 17 16 16 15 15 15 15 16 16 17 19 20 21 22 23 23 24 24 24 25 25 25 25 26 26 26 26 27 27 27 27 27 27 27 27 26 26 26 26 26 26 26 27 27 28 28 29 29 29 28 29 29 29 29 29 29 29 29 29 29 29 29 29 29
19 19 18 18 17 16 15 15 14 14 15 15 16 17 18 19 20 21 22 23 24 24 24 24 24 24 25 25 25 26 26 26 26 26 26 26 26 26 26 26 26 26 26 26 26 26 26 26 27 28 28 29 29 29 29 29 29 29 29 29 29 29 29 29 29 29 29 29 29
19 19 18 17 16 15 15 14 14 14 15 15 16 18 19 20 21 22 23 23 24 24 24 24 24 24 24 25 25 25 25 25 26 26 26 26 26 26 25 25 25 25 25 26 26 26 26 26 27 27 28 29 29 29 29 29 29 29 29 29 29 29 29 29 29 29 29 29 29
19 18 18 16 15 14 14 13 14 14 15 16 17 18 19 20 21 22 23 23 24 24 24 24 24 24 24 24 24 25 25 25 25 25 25 25 25 25 25 25 25 25 25 25 26 26 26 27 27 27 28 29 29 29 29 29 29 29 29 29 29 29 29 29 29 28 28 28 29
19 18 16 15 14 13 13 13 14 14 15 16 17 19 20 21 21 22 23 23 23 23 24 24 24 24 24 24 24 24 24 24 25 24 24 24 24 24 24 24 24 25 25 25 26 26 27 27 27 28 28 29 29 29 29 29 29 29 29 29 29 29 29 28 28 28 28 28 29
17 16 15 14 13 13 13 13 14 15 16 17 18 19 20 21 22 22 23 23 23 23 24 24 24 24 24 24 24 24 24 24 24 24 24 24 24 24 24 24 24 25 25 25 26 27 27 28 28 28 29 29 29 29 29 29 29 29 29 29 29 29 29 29 28 28 28 28 29
16 15 14 13 12 12 13 13 14 15 16 18 19 20 21 21 22 22 22 22 23 23 23 24 24 24 24 24 24 24 23 23 23 23 23 23 23 23 24 24 24 25 25 25 26 27 28 28 29 29 29 29 29 29 29 29 29 29 29 29 29 29 29 29 29 29 29 29 29
15 14 13 12 12 12 13 14 15 16 17 18 19 20 21 22 22 22 22 22 23 23 23 23 23 23 23 24 23 23 23 23 23 23 23 23 23 23 23 24 24 25 25 26 27 27 28 29 29 29 30 30 30 30 30 30 30 30 30 30 30 30 30 30 30 30 30 30 30
14 13 12 12 12 12 13 14 15 17 18 19 20 21 21 22 22 22 22 22 23 23 23 23 23 23 23 23 23 23 23 22 22 22 22 22 23 23 23 24 25 25 26 26 27 28 29 29 29 30 30 30 30 30 30 30 30 30 31 31 31 31 31 31 31 31 31 31 31
13 12 12 12 12 13 14 15 16 17 18 19 20 21 21 22 22 22 22 22 22 22 22 23 23 23 23 23 23 23 23 22 22 22 22 22 23 23 23 24 25 26 26 27 28 29 29 30 30 30 31 31 31 31 31 30 30 31 31 32 32 32 32 32 32 32 32 32 31
13 12 12 12 12 13 14 16 17 18 19 20 20 21 21 21 22 22 22 22 22 22 22 23 23 23 23 23 22 22 22 22 22 22 22 22 23 23 24 24 25 26 27 27 28 29 30 30 31 31 31 31 31 31 30 30 30 30 31 32 32 33 33 32 32 32 32 32 31
12 12 12 12 13 14 15 16 17 18 19 20 21 21 21 21 22 22 22 22 22 22 22 22 22 22 22 22 22 22 22 22 22 22 23 23 23 24 24 25 26 26 27 28 28 29 29 30 30 30 31 31 31 30 30 30 30 30 31 31 32 33 33 33 33 33 32 32 31
12 12 12 12 13 14 15 17 18 19 20 20 21 21 21 21 21 21 22 22 22 22 22 22 22 22 22 22 21 21 21 22 22 23 24 24 25 25 25 26 26 27 27 28 28 29 29 29 30 30 30 30 30 30 30 30 30 30 30 31 32 33 33 34 34 34 33 32 31
12 12 12 13 14 15 16 17 18 19 20 20 21 21 21 21 21 21 21 22 22 22 22 22 22 22 22 21 21 21 21 22 22 23 24 25 26 26 26 27 27 27 28 28 29 29 29 29 29 29 29 30 30 30 29 29 30 30 31 31 32 32 33 33 34 34 33 32 32
12 12 12 13 14 15 16 17 18 19 20 20 21 21 21 21 21 21 21 21 22 22 22 22 22 21 21 21 21 21 22 22 23 24 25 26 26 27 27 27 27 28 28 28 29 29 29 30 30 30 29 29 29 29 29 29 30 30 31 32 32 33 33 33 33 33 33 33 32
12 12 12 13 14 15 16 18 19 19 20 21 21 21 21 21 21 21 21 21 22 22 21 21 21 21 21 21 21 22 22 23 24 24 25 26 27 27 28 28 28 28 28 29 29 29 30 30 30 30 30 29 29 29 29 29 30 30 31 32 32 33 32 32 32 32 32 32 32
12 12 12 13 14 16 17 18 19 20 20 21 21 21 21 21 21 21 21 21 21 21 21 21 21 21 21 21 22 22 23 23 24 25 26 27 27 28 28 28 28 28 29 29 29 30 30 30 30 30 30 30 29 29 30 30 30 30 31 32 32 32 32 31 31 31 31 31 32
12 12 13 14 15 16 17 19 20 20 21 21 21 21 21 21 21 21 21 21 21 21 21 21 21 21 21 22 22 23 23 24 25 26 27 27 28 28 29 29 29 29 29 29 30 30 30 30 30 30 30 30 30 30 30 30 30 30 31 32 32 31 31 30 30 30 30 31 31
12 13 13 14 16 17 18 19 20 21 21 21 21 21 21 21 21 21 21 21 21 21 21 21 22 22 22 22 23 24 24 25 26 26 27 28 29 29 29 29 29 30 30 30 30 31 31 31 31 31 31 30 30 30 30 30 30 30 31 31 30 30 29 29 29 30 30 30 31
13 13 14 15 16 18 19 19 20 21 21 21 21 21 21 21 21 21 21 21 21 21 21 21 22 22 23 23 24 25 25 26 27 27 28 28 29 29 30 30 30 30 30 31 31 31 31 31 31 31 31 31 31 30 30 30 30 30 30 30 29 29 28 28 29 29 30 30 31
13 14 15 16 17 18 19 20 20 21 21 21 21 21 21 21 21 21 21 21 21 21 22 22 22 23 23 24 25 26 26 27 27 28 28 29 29 30 30 31 31 31 31 31 31 32 32 32 32 32 31 31 31 31 30 30 30 29 29 29 29 29 28 29 29 30 30 31 32
14 15 15 16 17 18 19 20 21 21 21 21 21 21 21 21 21 21 21 21 21 22 22 22 23 23 24 25 26 27 27 28 28 29 29 29 30 30 31 31 31 31 31 31 32 32 32 32 32 32 31 31 31 30 29 29 29 29 29 29 29 29 29 29 30 31 31 31 31
14 15 16 17 18 19 20 20 21 21 21 21 21 21 21 21 21 21 21 21 22 22 23 23 24 24 25 26 26 27 28 28 29 29 30 30 30 31 32 32 32 32 32 32 32 32 33 33 32 32 31 31 30 29 28 28 28 28 29 29 29 30 30 30 31 31 31 31 29
15 16 16 17 18 19 20 20 21 21 21 21 21 21 21 21 21 21 21 22 22 23 23 24 24 25 26 27 27 28 28 29 29 30 30 30 31 31 32 33 33 33 32 32 32 33 33 33 32 31 30 29 29 28 27 28 28 29 29 30 30 31 31 31 31 31 31 29 27
15 16 17 18 18 19 20 20 21 21 21 21 22 22 22 22 21 21 21 22 22 23 24 25 25 26 27 28 28 29 29 29 29 30 30 30 31 31 32 33 34 33 33 33 33 33 33 32 32 30 29 28 27 27 27 27 28 29 30 30 31 31 31 31 31 30 30 28 26
16 16 17 18 19 19 20 20 21 21 21 22 22 22 22 22 22 22 22 22 23 24 25 26 26 27 28 28 29 30 30 29 29 30 30 30 31 31 32 33 34 34 33 33 33 32 32 32 31 30 28 26 25 25 26 27 28 29 30 31 31 31 31 30 29 29 29 28 26
16 17 17 18 19 19 20 20 21 21 22 22 22 22 22 22 22 22 22 23 24 24 26 26 27 28 28 29 30 30 30 30 30 30 30 30 31 31 32 33 34 34 33 33 32 32 32 31 30 29 26 25 24 24 25 26 28 29 30 30 31 31 30 29 29 28 28 28 27
16 17 18 18 19 20 20 21 21 22 22 22 22 22 22 22 22 23 23 23 24 25 26 27 28 29 29 30 30 30 31 31 30 30 30 30 31 31 32 33 33 34 33 33 32 32 31 31 29 27 25 23 23 23 24 26 28 29 30 30 30 30 30 30 29 29 29 29 29
Wind_Direction
212 214 218 222 227 232 236 240 243 246 250 255 260 265 271 276 282 288 292 295 297 298 299 300 302 303 304 305 307 308 309 309 310 309 309 309 308 308 307 306 306 305 304 303 302 301 300 299 298 297 296 296 295 294 294 293 292 292 291 290 290 289 289 288 288 288 287 287 287
214 217 221 225 230 236 240 244 247 251 256 260 265 269 274 279 284 289 292 294 296 297 299 300 301 302 304 306 307 308 309 310 310 310 309 309 308 308 307 307 306 306 304 303 302 301 300 299 298 297 296 295 295 294 293 293 292 291 291 290 289 289 289 288 288 288 288 288 288
217 220 224 229 235 240 244 248 252 257 261 265 268 273 277 282 286 289 291 293 296 297 298 299 301 303 305 307 308 309 310 310 310 310 309 309 309 308 308 307 307 306 305 303 302 301 300 299 298 297 296 295 295 294 293 293 292 292 291 290 290 290 289 289 289 289 290 290 290
220 224 228 233 238 243 247 252 257 262 265 268 271 275 279 283 286 289 291 293 295 297 298 300 302 304 306 308 309 310 310 310 310 310 310 310 309 309 308 307 307 305 304 303 302 300 299 298 297 297 296 295 295 294 294 293 293 292 292 291 291 291 291 291 291 291 292 292 292
224 228 232 237 242 246 250 255 261 265 267 270 273 276 280 283 286 288 291 293 295 297 299 301 303 305 307 309 310 311 311 310 310 310 310 310 310 309 308 307 306 305 304 302 301 300 299 298 297 296 296 295 295 294 294 294 294 293 293 293 293 293 293 293 294 294 294 294 294
228 232 237 241 245 249 254 258 263 265 267 270 272 275 278 281 284 287 290 292 295 298 301 303 305 307 309 310 311 311 311 310 310 310 310 310 309 309 308 307 306 304 303 302 301 299 298 298 297 296 296 296 296 295 296 295 295 295 294 294 294 295 295 296 296 297 297 296 296
232 236 240 243 247 251 255 260 262 264 266 268 271 273 276 280 284 287 291 294 297 300 303 305 307 309 310 311 311 311 311 310 310 310 310 309 309 308 307 306 305 304 303 302 301 300 299 298 298 297 297 297 297 297 297 297 296 296 296 296 296 297 298 298 299 299 299 298 298
235 238 242 245 248 252 256 259 260 262 264 266 269 272 276 281 285 289 293 297 300 302 304 307 308 310 311 311 311 311 311 311 310 310 309 309 308 308 307 306 305 304 303 302 301 300 300 299 299 299 298 298 298 298 298 298 298 298 298 298 299 300 300 301 301 301 300 299 298
237 240 243 246 249 252 254 257 259 261 263 266 270 274 279 283 287 291 295 299 302 304 306 308 310 311 312 312 312 311 311 311 310 310 309 309 308 307 307 306 305 304 304 303 302 301 301 301 301 300 300 300 300 300 300 300 300 300 300 301 301 302 302 302 302 302 301 299 299
238 241 243 245 248 250 253 256 259 261 264 268 272 277 282 286 290 294 298 301 304 306 308 309 311 312 312 312 312 311 311 310 310 310 309 309 308 307 307 306 306 305 305 304 304 303 303 302 302 302 302 302 301 302 302 302 302 302 302 303 303 304 304 304 303 302 301 299 298
239 240 242 244 246 250 253 256 259 262 266 270 275 280 284 289 293 297 300 303 306 308 310 311 312 313 312 312 311 311 310 310 310 309 309 309 308 307 307 307 306 306 306 305 305 304 304 304 303 303 303 303 303 303 303 303 303 304 304 304 305 305 305 305 304 302 301 299 298
237 239 241 244 247 250 254 257 260 264 268 273 277 282 287 292 296 299 302 305 308 310 311 312 313 313 312 312 311 311 310 309 309 309 309 308 308 308 308 307 307 307 307 306 306 305 305 305 305 304 304 304 304 304 305 305 305 305 305 305 306 306 305 305 304 302 301 299 298
236 238 241 244 248 252 255 258 261 266 270 275 279 285 290 295 298 301 304 307 310 311 313 313 313 313 312 311 310 310 309 309 309 309 309 309 309 308 308 308 308 307 307 307 307 306 306 306 306 305 305 305 305 305 306 306 306 306 306 306 306 306 305 305 303 302 301 299 298
235 239 242 246 249 253 255 259 263 267 272 277 282 288 294 298 301 304 307 310 312 313 313 313 313 312 311 310 310 310 309 309 309 309 309 309 309 309 309 308 308 308 308 308 308 307 307 307 306 306 306 306 306 306 306 307 307 307 307 307 306 306 305 304 303 301 300 299 299
236 240 244 247 250 253 256 260 264 270 275 280 287 292 297 301 304 307 310 312 313 313 314 313 312 311 310 310 310 310 310 310 310 310 310 310 310 310 309 309 309 309 309 308 308 308 308 307 307 306 306 306 306 307 307 307 307 306 306 306 305 305 304 303 301 300 300 300 300
237 241 244 247 250 253 257 261 267 273 279 285 291 296 301 304 307 310 312 313 314 314 313 312 311 311 310 310 310 310 310 311 311 311 311 311 311 311 310 310 310 310 310 309 309 308 308 307 307 307 306 306 306 307 307 307 307 306 306 305 304 303 302 301 300 300 300 300 301
238 241 244 247 250 254 259 264 271 277 283 290 296 300 304 307 310 312 314 314 314 313 312 311 311 311 311 311 311 311 312 312 312 313 313 312 312 312 312 311 311 311 310 310 309 309 308 307 307 307 306 306 307 307 307 307 306 305 305 304 302 301 300 300 300 300 300 301 302
237 240 243 247 251 256 262 268 275 282 288 295 300 304 307 310 312 314 314 314 313 313 312 311 311 311 312 312 312 313 313 314 314 314 314 314 313 313 312 312 311 311 310 310 309 309 308 307 307 307 307 306 306 306 306 306 305 305 304 303 302 301 300 300 300 301 302 303 303
236 240 243 247 253 259 266 273 279 287 293 299 303 307 309 311 313 314 314 314 313 313 312 312 312 313 313 314 314 315 315 315 315 315 315 314 314 313 313 312 311 311 310 310 309 308 308 307 307 307 307 307 306 306 306 305 305 304 303 303 302 302 301 302 302 303 304 304 305
236 240 244 250 256 263 270 277 285 292 298 302 306 309 311 313 314 314 314 313 313 313 313 313 314 314 315 315 316 316 316 316 316 316 315 315 314 313 313 312 311 311 310 310 309 308 308 307 307 307 307 307 306 306 306 305 305 304 304 304 304 303 304 304 304 305 305 305 306
237 241 246 253 260 267 275 282 290 296 301 305 308 311 313 314 314 314 314 314 314 314 314 315 315 316 316 317 317 317 317 317 317 316 316 315 314 313 312 312 311 311 310 310 309 308 308 307 307 307 307 307 307 306 306 306 306 306 306 306 306 305 305 305 305 305 306 306 306
238 243 249 256 264 272 280 288 294 299 303 307 310 312 314 315 315 315 315 315 315 316 316 316 317 317 317 318 318 318 318 318 317 316 315 314 313 313 312 311 311 311 310 310 309 308 308 308 308 308 308 308 308 308 308 308 308 308 308 307 307 306 306 306 306 305 306 306 306
239 245 252 260 268 277 285 291 297 301 306 309 312 314 315 316 315 316 316 316 317 317 317 317 317 318 318 318 318 318 318 318 317 316 315 314 313 313 312 312 311 311 311 310 310 309 309 309 309 310 310 310 310 310 310 310 310 309 309 308 307 306 306 305 305 305 305 305 305
241 248 256 264 273 281 289 294 300 305 309 312 315 316 316 316 316 317 317 317 318 317 317 317 317 318 318 318 318 318 317 317 316 315 315 314 313 313 312 312 312 311 311 311 311 310 310 311 311 311 312 312 312 311 311 311 310 309 309 308 307 307 306 305 305 305 305 305 305
244 251 260 269 277 285 292 298 304 309 313 315 317 317 317 317 317 318 318 318 317 317 317 317 317 317 317 317 318 317 317 316 316 315 315 314 313 313 313 312 312 312 311 311 311 311 311 312 312 312 312 312 312 311 310 310 309 309 308 308 307 306 306 305 304 304 304 304 304
247 255 264 273 282 289 296 302 308 313 316 317 318 318 319 318 318 318 318 317 317 317 316 316 316 316 317 317 317 317 317 316 316 315 314 314 313 313 313 312 312 312 312 312 311 311 311 312 312 312 312 311 311 310 310 309 309 308 307 307 306 306 305 305 304 304 304 304 303
251 260 269 278 286 294 302 308 313 317 318 319 319 320 319 319 318 318 317 317 316 316 316 316 316 316 316 316 316 316 316 316 315 314 314 313 313 313 313 313 312 312 312 312 312 312 312 312 312 311 311 311 310 310 309 309 308 307 307 306 305 305 304 304 304 304 304 303 302
256 265 274 283 292 300 307 313 317 319 320 320 320 320 320 319 318 317 316 315 315 315 315 315 315 315 315 316 316 316 316 315 314 313 313 312 312 312 312 312 313 313 313 313 312 312 312 312 312 311 311 311 311 310 309 308 307 306 305 305 304 304 303 303 303 303 303 302 302
261 270 280 289 298 306 312 316 318 320 320 321 321 320 320 319 317 316 315 315 314 314 314 314 314 315 315 315 315 315 315 314 313 313 312 312 312 312 312 312 313 313 313 313 313 312 312 312 312 312 312 311 310 309 309 307 306 306 304 304 303 302 302 302 302 302 301 301 301
266 275 285 295 303 309 314 317 319 320 321 321 321 320 319 318 316 315 314 313 313 313 313 313 314 314 314 315 314 314 314 313 313 312 312 311 311 312 312 312 313 313 314 313 313 313 313 313 313 313 312 311 310 309 308 307 306 304 303 302 301 300 300 300 301 301 301 301 302
271 281 290 299 306 311 315 318 320 321 322 322 321 319 318 316 314 313 312 312 312 312 313 313 313 313 314 314 313 313 313 312 312 312 311 311 311 312 312 313 313 314 314 314 314 314 314 314 313 313 312 311 310 309 307 306 305 303 301 300 299 299 299 300 301 301 302 302 303
275 284 294 301 307 312 316 319 321 322 322 321 320 318 315 314 313 312 311 311 311 311 312 312 312 313 313 313 313 312 312 312 312 312 312 312 312 312 313 313 314 314 315 315 315 315 314 314 314 313 312 311 310 308 307 305 304 302 301 300 299 300 301 302 302 302 303 303 303
279 288 296 303 308 313 317 320 321 321 321 320 318 316 314 313 312 311 310 310 310 310 311 311 312 312 312 312 312 312 312 312 312 312 312 312 312 313 313 314 314 315 315 315 315 315 315 314 313 313 312 311 310 308 307 306 304 303 302 301 301 302 303 303 303 303 303 304 303
282 290 297 304 310 314 318 320 320 320 319 318 316 314 312 311 310 310 309 309 309 309 310 310 311 311 311 311 311 311 311 312 312 312 312 313 313 313 313 314 315 315 316 316 315 315 315 314 313 313 312 311 310 308 307 307 306 305 304 304 304 304 304 304 304 304 304 304 304
284 292 299 306 312 316 318 319 319 318 317 315 314 312 311 310 309 309 308 308 308 308 309 309 309 310 310 310 310 311 311 312 312 313 313 313 313 313 313 314 314 315 316 316 315 315 314 314 314 313 313 311 310 309 309 308 307 307 306 306 306 306 305 304 304 305 305 305 307
286 294 301 308 313 316 317 318 317 316 315 313 312 311 310 309 308 308 307 307 307 307 307 308 308 309 309 309 310 310 311 311 312 313 313 313 313 314 314 314 314 315 315 315 315 315 315 314 314 314 313 312 311 311 311 310 310 309 309 308 307 306 305 305 305 306 307 308 311
287 296 303 309 313 315 316 316 315 314 313 312 310 309 308 307 307 306 306 306 306 306 306 307 307 308 308 309 309 310 311 312 312 313 313 313 314 314 314 314 314 315 315 316 315 315 315 315 314 314 314 313 313 313 313 313 312 311 310 308 306 306 306 306 306 307 309 311 314
290 297 304 309 312 314 314 314 313 312 311 310 309 308 307 306 306 305 305 305 305 305 306 306 307 308 308 309 309 310 311 311 312 312 313 313 314 314 314 314 314 315 316 316 316 315 315 315 315 315 315 315 316 316 316 315 313 311 309 307 306 306 306 307 308 309 312 315 318
291 298 304 308 311 312 313 312 311 310 309 308 307 307 306 305 305 304 304 304 304 304 305 306 307 307 308 309 309 310 310 311 312 312 313 313 313 313 314 314 314 315 316 316 316 316 316 315 316 316 317 318 318 318 317 314 311 309 308 307 307 307 308 309 310 313 316 319 321
292 298 303 307 310 311 311 310 309 308 307 306 306 305 304 304 303 303 303 303 304 304 305 305 306 307 308 308 309 309 310 311 311 312 312 313 313 313 313 313 314 315 315 316 316 316 316 317 317 319 320 320 320 317 314 311 309 307 307 307 308 309 310 312 314 317 319 321 321
292 298 303 307 309 310 309 308 307 307 306 305 304 303 303 302 302 302 303 303 303 304 304 305 305 306 307 308 308 309 309 310 311 312 312 312 312 313 313 313 314 315 315 316 317 317 318 318 320 321 322 321 318 314 310 308 307 307 307 308 310 311 312 314 317 318 319 319 319
Height
1538 1538 1539 1539 1539 1539 1539 1539 1539 1539 1539 1539 1539 1539 1539 1539 1539 1538 1538 1537 1537 1537 1536 1536 1535 1535 1534 1534 1533 1533 1532 1531 1530 1529 1529 1528 1526 1525 1524 1523 1522 1521 1520 1519 1518 1517 1515 1514 1513 1512 1511 1510 1509 1508 1507 1506 1505 1504 1504 1503 1502 1501 1500 1499 1498 1497 1496 1496 1495
1537 1537 1538 1538 1538 1538 1538 1538 1538 1538 1538 1538 1538 1538 1538 1538 1537 1537 1536 1536 1536 1535 1535 1534 1534 1534 1533 1532 1532 1531 1530 1529 1529 1528 1527 1526 1525 1524 1523 1521 1520 1519 1518 1517 1516 1515 1514 1512 1511 1510 1509 1508 1507 1506 1505 1504 1504 1502 1501 1500 1499 1499 1498 1497 1496 1495 1494 1494 1493
1536 1536 1536 1537 1537 1537 1537 1537 1537 1537 1537 1537 1537 1537 1537 1537 1536 1536 1535 1535 1534 1534 1534 1533 1533 1532 1532 1531 1530 1529 1529 1528 1527 1526 1525 1524 1523 1522 1521 1519 1519 1517 1516 1515 1514 1513 1512 1510 1509 1508 1507 1506 1505 1504 1503 1502 1501 1500 1499 1498 1497 1496 1495 1495 1494 1493 1492 1492 1491
1534 1535 1535 1536 1536 1536 1536 1536 1536 1537 1537 1537 1536 1536 1536 1535 1535 1535 1534 1534 1533 1533 1532 1532 1531 1531 1530 1530 1529 1528 1527 1526 1525 1524 1523 1522 1521 1520 1519 1518 1517 1515 1514 1513 1512 1511 1510 1509 1507 1506 1505 1504 1503 1502 1501 1500 1499 1498 1497 1496 1495 1494 1494 1493 1492 1491 1490 1490 1489
1534 1534 1534 1535 1535 1535 1535 1536 1536 1536 1536 1535 1535 1535 1534 1534 1534 1534 1533 1533 1532 1531 1531 1530 1530 1529 1529 1528 1527 1526 1525 1524 1523 1522 1521 1520 1519 1518 1517 1516 1515 1514 1513 1511 1510 1509 1508 1507 1505 1504 1503 1502 1501 1500 1499 1498 1497 1496 1495 1494 1493 1492 1491 1491 1490 1489 1489 1488 1487
1533 1533 1534 1534 1534 1534 1535 1535 1535 1535 1534 1534 1534 1534 1533 1533 1533 1532 1532 1531 1531 1530 1529 1529 1529 1528 1527 1526 1525 1524 1524 1522 1521 1520 1519 1518 1517 1516 1515 1514 1513 1512 1511 1509 1508 1507 1506 1505 1504 1502 1501 1500 1499 1498 1497 1496 1495 1494 1493 1492 1491 1491 1490 1489 1488 1487 1486 1485 1484
1532 1532 1533 1533 1534 1534 1534 1534 1534 1534 1533 1533 1533 1533 1532 1532 1532 1531 1531 1530 1529 1529 1528 1528 1527 1526 1526 1525 1524 1523 1522 1521 1519 1518 1517 1516 1515 1514 1513 1512 1511 1510 1509 1508 1506 1505 1504 1503 1502 1500 1499 1499 1497 1496 1495 1494 1493 1492 1491 1490 1489 1489 1488 1487 1486 1485 1484 1483 1482
1531 1532 1532 1532 1533 1533 1533 1533 1533 1532 1532 1532 1532 1532 1531 1531 1530 1530 1529 1529 1528 1528 1527 1526 1525 1525 1524 1523 1522 1521 1520 1519 1518 1517 1515 1514 1513 1512 1511 1510 1509 1508 1507 1506 1504 1503 1502 1501 1499 1499 1497 1496 1495 1494 1493 1492 1491 1490 1489 1488 1487 1487 1486 1485 1484 1484 1482 1481 1480
1530 1531 1531 1531 1532 1532 1532 1531 1531 1531 1531 1531 1531 1530 1530 1530 1529 1529 1528 1528 1527 1526 1525 1525 1524 1523 1522 1521 1520 1519 1518 1517 1516 1514 1514 1512 1511 1510 1509 1508 1507 1506 1505 1504 1502 1501 1500 1499 1498 1496 1495 1494 1493 1492 1491 1490 1489 1488 1487 1486 1486 1485 1484 1484 1483 1482 1480 1479 1478
1529 1530 1530 1530 1530 1530 1530 1530 1530 1530 1530 1530 1529 1529 1529 1529 1528 1527 1527 1526 1525 1525 1524 1523 1522 1521 1520 1519 1518 1517 1516 1515 1514 1513 1512 1510 1509 1508 1507 1506 1505 1504 1503 1501 1500 1499 1498 1497 1495 1494 1494 1493 1492 1490 1489 1489 1488 1487 1485 1485 1484 1483 1482 1482 1481 1480 1479 1477 1476
1528 1529 1529 1529 1529 1529 1529 1529 1529 1529 1529 1529 1529 1528 1528 1527 1527 1526 1525 1525 1524 1523 1522 1521 1520 1519 1519 1518 1516 1515 1514 1513 1512 1511 1509 1509 1507 1506 1505 1504 1503 1502 1500 1499 1498 1497 1496 1494 1494 1493 1492 1491 1490 1489 1488 1487 1486 1485 1484 1483 1482 1481 1480 1479 1479 1478 1477 1475 1474
1527 1528 1528 1528 1528 1528 1528 1528 1528 1528 1528 1528 1527 1527 1526 1526 1525 1525 1524 1524 1523 1522 1521 1520 1519 1518 1517 1516 1515 1514 1512 1511 1510 1509 1508 1507 1505 1504 1503 1502 1501 1500 1499 1497 1496 1495 1494 1493 1492 1491 1490 1489 1488 1487 1486 1485 1484 1483 1482 1481 1480 1479 1478 1478 1477 1476 1475 1474 1472
1526 1526 1527 1527 1527 1527 1527 1527 1527 1527 1527 1527 1526 1526 1525 1524 1524 1523 1523 1522 1521 1520 1519 1518 1517 1516 1515 1514 1513 1512 1511 1509 1508 1507 1506 1505 1504 1502 1501 1500 1499 1498 1497 1496 1494 1494 1492 1491 1490 1489 1488 1487 1486 1485 1484 1484 1482 1481 1480 1479 1478 1477 1476 1475 1474 1474 1473 1471 1470
1525 1525 1525 1525 1526 1526 1526 1526 1526 1526 1526 1525 1525 1524 1524 1523 1523 1522 1521 1520 1519 1519 1518 1517 1516 1514 1514 1512 1511 1510 1509 1508 1507 1505 1504 1503 1502 1501 1499 1498 1497 1496 1495 1494 1493 1492 1491 1489 1489 1487 1486 1485 1484 1484 1483 1482 1481 1479 1479 1477 1476 1475 1474 1474 1473 1472 1470 1469 1468
1524 1524 1524 1524 1524 1525 1525 1525 1525 1525 1524 1524 1524 1523 1523 1522 1521 1520 1519 1519 1518 1517 1516 1515 1514 1513 1512 1511 1509 1509 1507 1506 1505 1504 1502 1501 1500 1499 1498 1497 1495 1494 1493 1492 1491 1490 1489 1488 1487 1486 1484 1484 1483 1482 1481 1480 1479 1478 1477 1476 1474 1474 1472 1471 1470 1469 1469 1467 1466
1523 1523 1523 1523 1524 1524 1524 1524 1524 1524 1523 1523 1522 1522 1521 1520 1519 1519 1518 1517 1516 1515 1514 1514 1513 1512 1510 1509 1508 1507 1505 1504 1503 1502 1501 1499 1498 1497 1496 1495 1494 1493 1492 1491 1490 1489 1488 1487 1486 1484 1483 1482 1481 1480 1479 1478 1477 1476 1475 1474 1473 1472 1471 1469 1469 1468 1466 1465 1464
1521 1522 1522 1522 1522 1522 1523 1523 1522 1522 1522 1521 1521 1520 1520 1519 1518 1517 1516 1515 1514 1514 1513 1512 1511 1510 1509 1508 1506 1505 1504 1503 1501 1500 1499 1498 1496 1495 1494 1493 1492 1491 1490 1489 1488 1487 1486 1485 1484 1483 1482 1481 1479 1479 1477 1476 1475 1474 1474 1472 1471 1470 1469 1468 1467 1466 1464 1463 1462
1520 1520 1521 1521 1521 1521 1521 1521 1521 1521 1520 1520 1519 1519 1518 1518 1517 1516 1515 1514 1513 1512 1511 1510 1509 1508 1507 1506 1505 1504 1502 1501 1499 1499 1497 1496 1495 1494 1493 1492 1491 1490 1489 1488 1487 1486 1484 1484 1483 1482 1480 1479 1478 1477 1476 1475 1474 1473 1471 1470 1469 1468 1467 1466 1465 1464 1463 1461 1460
1519 1519 1519 1520 1520 1520 1520 1520 1520 1519 1519 1519 1518 1517 1517 1516 1515 1514 1513 1512 1511 1510 1509 1509 1508 1507 1505 1504 1503 1502 1500 1499 1498 1497 1496 1494 1494 1492 1491 1490 1489 1489 1488 1486 1485 1484 1483 1482 1481 1480 1479 1478 1476 1475 1474 1473 1472 1471 1469 1469 1467 1466 1465 1464 1463 1462 1460 1459 1458
1518 1518 1519 1519 1519 1519 1519 1519 1519 1518 1518 1517 1517 1516 1515 1514 1514 1513 1512 1511 1510 1509 1508 1507 1506 1505 1504 1502 1501 1500 1499 1498 1496 1495 1494 1493 1492 1491 1490 1489 1488 1487 1486 1485 1484 1483 1481 1480 1479 1478 1477 1476 1474 1473 1472 1471 1470 1469 1468 1466 1465 1464 1463 1462 1460 1459 1458 1457 1456
1517 1517 1517 1517 1518 1518 1518 1517 1517 1517 1516 1516 1515 1514 1514 1513 1512 1511 1510 1509 1509 1507 1506 1505 1504 1503 1502 1500 1499 1498 1497 1496 1495 1494 1493 1492 1491 1490 1489 1488 1487 1486 1485 1484 1482 1481 1480 1479 1478 1476 1475 1474 1473 1471 1470 1469 1468 1466 1465 1464 1463 1462 1461 1459 1459 1457 1456 1455 1454
1515 1516 1516 1516 1516 1516 1516 1516 1516 1515 1515 1514 1514 1513 1512 1511 1510 1509 1509 1508 1507 1506 1504 1503 1502 1501 1500 1499 1498 1496 1495 1494 1494 1492 1491 1490 1489 1489 1488 1487 1485 1484 1483 1482 1481 1479 1478 1477 1476 1474 1473 1472 1470 1469 1468 1466 1465 1464 1463 1462 1461 1459 1459 1457 1456 1455 1454 1453 1452
1514 1515 1515 1515 1515 1515 1515 1514 1514 1514 1514 1513 1512 1511 1510 1510 1509 1508 1507 1506 1505 1504 1503 1502 1500 1499 1498 1497 1496 1495 1494 1493 1492 1491 1490 1489 1488 1487 1486 1485 1484 1483 1482 1480 1479 1478 1476 1475 1474 1472 1471 1469 1468 1467 1465 1464 1463 1462 1460 1459 1458 1457 1456 1455 1454 1453 1452 1451 1450
1513 1514 1514 1514 1514 1514 1514 1513 1513 1513 1512 1511 1510 1509 1509 1508 1507 1506 1505 1504 1503 1502 1501 1500 1499 1498 1497 1495 1494 1493 1492 1491 1490 1489 1489 1488 1487 1486 1485 1484 1483 1482 1480 1479 1478 1476 1474 1473 1471 1470 1469 1467 1466 1464 1463 1462 1461 1460 1458 1457 1456 1455 1454 1453 1452 1451 1450 1449 1448
1512 1512 1513 1513 1513 1512 1512 1512 1512 1511 1510 1509 1509 1508 1507 1506 1505 1504 1504 1503 1502 1500 1499 1498 1497 1496 1495 1494 1493 1492 1491 1490 1489 1488 1487 1486 1485 1484 1484 1482 1481 1480 1479 1477 1476 1474 1473 1472 1470 1468 1467 1465 1464 1463 1461 1460 1459 1458 1457 1455 1454 1453 1451 1450 1449 1449 1448 1447 1446
1511 1511 1511 1511 1511 1511 1511 1510 1510 1509 1509 1508 1507 1506 1505 1504 1504 1503 1502 1501 1500 1499 1498 1497 1496 1494 1494 1492 1491 1490 1489 1489 1487 1486 1485 1484 1484 1483 1482 1481 1480 1479 1477 1476 1474 1473 1472 1470 1469 1467 1465 1464 1462 1461 1459 1458 1457 1456 1455 1454 1452 1451 1449 1448 1447 1446 1445 1445 1444
1510 1510 1510 1510 1510 1510 1509 1509 1508 1508 1507 1506 1505 1504 1504 1503 1502 1501 1500 1499 1498 1497 1496 1495 1494 1493 1492 1491 1490 1489 1488 1487 1486 1485 1484 1483 1482 1481 1480 1479 1478 1477 1475 1474 1473 1471 1470 1469 1467 1466 1464 1462 1460 1459 1458 1456 1455 1454 1453 1451 1450 1449 1448 1446 1445 1444 1443 1442 1441
1509 1509 1509 1509 1509 1508 1508 1507 1507 1506 1505 1504 1504 1503 1502 1501 1500 1499 1498 1497 1496 1495 1494 1494 1493 1491 1490 1489 1488 1487 1486 1485 1484 1484 1482 1481 1480 1479 1478 1477 1476 1475 1474 1472 1471 1469 1468 1467 1465 1464 1462 1461 1459 1457 1456 1454 1453 1452 1451 1449 1448 1447 1446 1444 1443 1442 1441 1439 1439
1507 1507 1507 1507 1507 1507 1506 1506 1505 1504 1504 1503 1502 1501 1500 1499 1499 1498 1497 1496 1495 1494 1493 1492 1491 1490 1489 1488 1487 1486 1485 1484 1483 1482 1481 1480 1479 1478 1477 1475 1474 1473 1472 1470 1469 1467 1466 1465 1463 1462 1461 1459 1457 1455 1454 1453 1451 1450 1449 1447 1446 1445 1444 1443 1441 1440 1439 1438 1436
1506 1506 1506 1506 1506 1505 1505 1504 1504 1503 1502 1501 1500 1499 1499 1498 1497 1496 1495 1494 1493 1492 1491 1490 1489 1488 1487 1486 1485 1484 1483 1483 1482 1480 1479 1478 1477 1476 1474 1474 1472 1471 1470 1469 1467 1465 1464 1463 1461 1460 1459 1457 1455 1454 1452 1451 1449 1448 1446 1445 1444 1443 1442 1441 1439 1438 1437 1435 1434
1504 1504 1504 1504 1504 1504 1503 1503 1502 1501 1500 1500 1499 1498 1497 1496 1495 1494 1493 1492 1491 1490 1489 1488 1487 1486 1485 1484 1484 1483 1482 1481 1480 1479 1478 1476 1475 1474 1473 1471 1470 1469 1468 1466 1465 1463 1462 1461 1459 1458 1456 1455 1454 1452 1450 1449 1447 1446 1444 1443 1442 1441 1440 1439 1437 1436 1435 1434 1433
1503 1503 1503 1503 1503 1502 1502 1501 1500 1499 1499 1498 1497 1496 1495 1494 1494 1493 1491 1490 1489 1489 1487 1486 1485 1484 1484 1483 1482 1481 1480 1479 1478 1477 1476 1474 1473 1472 1470 1469 1468 1467 1466 1464 1463 1461 1460 1459 1457 1456 1454 1453 1451 1450 1448 1447 1445 1444 1442 1441 1440 1439 1438 1436 1435 1434 1433 1432 1431
1501 1501 1501 1501 1501 1500 1500 1499 1499 1498 1497 1496 1495 1494 1494 1493 1492 1491 1490 1489 1488 1487 1486 1485 1484 1483 1482 1481 1480 1479 1478 1477 1476 1475 1474 1473 1471 1469 1468 1467 1466 1465 1464 1462 1461 1459 1458 1456 1455 1454 1452 1451 1449 1447 1446 1444 1443 1441 1440 1439 1438 1437 1435 1434 1433 1432 1431 1430 1429
1500 1500 1500 1500 1499 1499 1498 1498 1497 1496 1495 1494 1494 1493 1492 1491 1490 1489 1488 1487 1486 1485 1484 1483 1482 1481 1480 1479 1478 1477 1476 1475 1474 1473 1472 1470 1469 1468 1466 1465 1464 1463 1462 1460 1459 1457 1456 1454 1453 1451 1450 1448 1447 1445 1443 1442 1440 1439 1438 1436 1435 1434 1433 1432 1431 1430 1429 1428 1426
1499 1499 1498 1498 1498 1497 1496 1496 1495 1494 1494 1493 1492 1491 1490 1489 1488 1487 1486 1485 1484 1483 1482 1481 1480 1479 1479 1478 1477 1475 1474 1473 1472 1471 1470 1469 1467 1465 1464 1463 1462 1461 1460 1458 1457 1455 1454 1452 1451 1449 1448 1446 1444 1443 1441 1440 1438 1437 1435 1434 1433 1432 1431 1430 1429 1428 1427 1426 1424
1497 1497 1497 1496 1496 1495 1495 1494 1493 1493 1492 1491 1490 1489 1488 1487 1486 1485 1484 1483 1482 1481 1480 1479 1479 1478 1477 1476 1475 1474 1473 1471 1470 1469 1468 1466 1465 1463 1462 1460 1459 1459 1458 1456 1454 1453 1451 1450 1449 1447 1445 1444 1442 1440 1439 1438 1436 1434 1433 1432 1431 1430 1429 1428 1427 1425 1424 1424 1422
1495 1495 1495 1494 1494 1494 1493 1492 1491 1490 1489 1489 1488 1487 1486 1485 1484 1483 1482 1481 1480 1479 1479 1478 1477 1476 1475 1474 1473 1472 1471 1469 1468 1467 1465 1464 1463 1461 1459 1458 1457 1456 1455 1454 1452 1451 1449 1448 1446 1445 1443 1441 1440 1438 1437 1435 1434 1432 1431 1430 1429 1428 1427 1426 1424 1423 1422 1421 1420
1494 1494 1493 1493 1492 1492 1491 1490 1489 1488 1487 1487 1486 1485 1484 1483 1482 1481 1480 1479 1479 1477 1476 1475 1475 1474 1473 1472 1471 1469 1469 1468 1467 1465 1464 1462 1461 1459 1458 1456 1455 1454 1453 1452 1450 1449 1447 1446 1444 1443 1441 1439 1438 1436 1435 1433 1432 1430 1429 1428 1426 1425 1424 1424 1422 1421 1420 1419 1419
1492 1492 1491 1491 1490 1490 1489 1488 1487 1486 1485 1484 1484 1483 1482 1481 1480 1479 1479 1478 1476 1475 1474 1474 1473 1472 1471 1470 1469 1467 1466 1466 1465 1464 1462 1460 1459 1458 1456 1454 1453 1452 1451 1450 1448 1447 1445 1444 1442 1441 1439 1438 1436 1434 1433 1432 1430 1429 1427 1426 1424 1423 1422 1421 1420 1419 1418 1417 1416
1490 1490 1489 1489 1488 1488 1487 1486 1485 1484 1484 1483 1482 1481 1480 1479 1478 1477 1476 1475 1474 1474 1472 1471 1470 1469 1469 1468 1466 1465 1464 1464 1463 1462 1460 1459 1457 1456 1454 1453 1451 1449 1449 1448 1446 1444 1443 1441 1440 1439 1437 1436 1434 1433 1432 1430 1429 1427 1425 1424 1423 1421 1420 1419 1418 1417 1416 1415 1414
1489 1488 1488 1487 1486 1485 1485 1484 1483 1482 1481 1480 1479 1479 1478 1477 1476 1475 1474 1474 1473 1472 1470 1469 1469 1468 1467 1465 1464 1463 1462 1461 1460 1460 1459 1457 1455 1454 1453 1451 1449 1448 1446 1445 1444 1442 1441 1439 1438 1437 1436 1434 1433 1432 1431 1429 1427 1425 1424 1423 1421 1420 1419 1417 1416 1415 1414 1414 1413